Flag for U.S.A. Weather past 2 weeks in Menominee, Michigan, U.S.A.

Now
68 °F

Clear.


Feels Like: 68 °F
Forecast: 55 / 72 °F
Wind: 3 mph from West

Location: Menominee Weather Reporting Station

Current Time: Sep 1, 2014 at 8:53:45 PM

Latest Report: Sep 1, 2014 at 8:15 PM


Visibility: 10 mi

Pressure: 29.71 "Hg

Humidity: 78%

Dew point: 61 °F

Location of MenomineeLocation

Historic Weather in Menominee — Graph

°F

Menominee temperature yesterday

Maximum temperature yesterday: 68 °F (at 4:35 PM)
Minimum temperature yesterday: 57 °F (at 2:55 AM)
Average temperature yesterday: 63 °F

Past Weeks' High & Low Weather Summary

 TemperatureHumidityPressure
High82 °F (Aug 25, 3:55 PM)94% (Aug 17, 9:15 PM)30.19 "Hg (Aug 17, 9:15 PM)
Low48 °F (Aug 18, 12:55 AM)50% (Aug 27, 3:55 PM)29.62 "Hg (Aug 19, 4:35 AM)
Average67 °F82%29.93 "Hg
* Reported Aug 17 7:15 PM — Sep 1 7:35 PM, Menominee, Weather by CustomWeather, © 2014

Note: Actual official high and low records may vary slightly from our data, if they occured in-between our weather recording intervals... More about our weather records

Advertising

Menominee weather history for previous 24 hours

 ConditionsComfort  
Time TempWeatherWind HumidityBarometerVisibility
7:35 PM
Sep 1
70 °FClear.5 mph78%29.69 "Hg10 mi
7:15 PM72 °FSunny.5 mph73%29.67 "Hg10 mi
6:55 PM72 °FPassing clouds.3 mph73%29.67 "Hg10 mi
6:35 PM73 °FPassing clouds.No wind69%29.66 "Hg10 mi
6:15 PM73 °FSunny.3 mph69%29.66 "Hg10 mi
5:55 PM73 °FSunny.7 mph69%29.65 "Hg10 mi
5:35 PM73 °FSunny.6 mph74%29.65 "Hg10 mi
5:15 PM73 °FScattered clouds.7 mph74%29.65 "Hg10 mi
4:55 PM73 °FMostly cloudy.6 mph74%29.64 "Hg10 mi
4:35 PM75 °FBroken clouds.7 mph69%29.63 "Hg10 mi
4:15 PM73 °FScattered clouds.12 mph74%29.62 "Hg10 mi
3:55 PM73 °FScattered clouds.9 mph74%29.62 "Hg10 mi
3:35 PM73 °FPassing clouds.10 mph74%29.62 "Hg10 mi
3:15 PM73 °FBroken clouds.10 mph74%29.62 "Hg10 mi
2:55 PM72 °FCloudy.7 mph78%29.62 "Hg10 mi
2:35 PM72 °FCloudy.7 mph78%29.62 "Hg10 mi
2:15 PM70 °FMostly cloudy.9 mph83%29.63 "Hg10 mi
1:55 PM70 °FPartly sunny.12 mph83%29.63 "Hg10 mi
1:35 PM70 °FPassing clouds.8 mph83%29.63 "Hg10 mi
1:15 PM66 °FPassing clouds.8 mph94%29.63 "Hg10 mi
12:55 PM66 °FPartly sunny.9 mph88%29.65 "Hg10 mi
12:35 PM66 °FMostly cloudy.9 mph94%29.65 "Hg10 mi
12:15 PM66 °FBroken clouds.9 mph94%29.65 "Hg10 mi
11:55 AM66 °FBroken clouds.6 mph88%29.66 "Hg10 mi
11:35 AM66 °FOvercast.6 mph88%29.68 "Hg10 mi
11:15 AM66 °FMostly cloudy.6 mph88%29.68 "Hg10 mi
10:55 AM68 °FMostly cloudy.10 mph83%29.68 "Hg10 mi
10:35 AM70 °FMostly cloudy.10 mph88%29.67 "Hg4 mi
10:15 AM70 °FCloudy.7 mph88%29.68 "Hg5 mi
9:55 AM70 °FCloudy.5 mph88%29.67 "Hg3 mi
9:35 AM70 °FPartly sunny.7 mph88%29.67 "Hg3 mi
9:15 AM70 °FLow clouds.9 mph88%29.68 "Hg3 mi
8:55 AM68 °FLow clouds.8 mph88%29.68 "Hg3 mi
8:35 AM68 °FLow clouds.6 mph88%29.65 "Hg2 mi
8:15 AM68 °FLow clouds.10 mph88%29.65 "Hg3 mi
7:55 AM68 °FLow clouds.9 mph88%29.65 "Hg3 mi
7:35 AM70 °FLow clouds.9 mph88%29.64 "Hg3 mi
6:55 AM68 °FPartly sunny.9 mph88%29.66 "Hg3 mi
6:35 AM68 °FScattered clouds.10 mph88%29.68 "Hg3 mi
6:15 AM68 °FPassing clouds.8 mph88%29.68 "Hg3 mi
5:55 AM70 °FClear.9 mph88%29.68 "Hg8 mi
5:35 AM70 °FClear.8 mph88%29.68 "Hg7 mi
5:15 AM70 °FClear.7 mph88%29.68 "Hg7 mi
4:55 AM70 °FClear.9 mph88%29.69 "Hg8 mi
4:35 AM70 °FClear.10 mph88%29.69 "Hg8 mi
3:55 AM70 °FPassing clouds.12 mph88%29.71 "Hg10 mi
3:35 AM70 °FPassing clouds.9 mph88%29.72 "Hg9 mi
3:15 AM70 °FPassing clouds.8 mph83%29.73 "Hg8 mi
2:55 AM70 °FPassing clouds.8 mph83%29.73 "Hg10 mi
2:35 AM70 °FPassing clouds.9 mph83%29.74 "Hg10 mi
2:15 AM68 °FPassing clouds.9 mph88%29.75 "Hg10 mi
1:55 AM66 °FPassing clouds.7 mph94%29.76 "Hg8 mi
1:35 AM66 °FPassing clouds.6 mph94%29.76 "Hg8 mi
1:15 AM66 °FClear.7 mph94%29.76 "Hg7 mi
12:55 AM66 °FClear.6 mph88%29.78 "Hg7 mi
12:35 AM66 °FPassing clouds.6 mph88%29.79 "Hg7 mi
12:15 AM66 °FPassing clouds.6 mph88%29.81 "Hg7 mi
11:55 PM
Aug 31
66 °FPassing clouds.5 mph88%29.81 "Hg8 mi
11:35 PM66 °FPassing clouds.5 mph88%29.81 "Hg8 mi
11:15 PM66 °FPassing clouds.5 mph88%29.81 "Hg9 mi
10:55 PM66 °FPartly cloudy.6 mph88%29.81 "Hg10 mi
10:35 PM64 °FLow clouds.6 mph94%29.80 "Hg10 mi
10:15 PM64 °FLow clouds.3 mph94%29.80 "Hg10 mi
9:55 PM64 °FLow clouds.8 mph94%29.80 "Hg10 mi
9:35 PM66 °FLow clouds.7 mph88%29.81 "Hg9 mi
9:15 PM64 °FLow clouds.12 mph94%29.81 "Hg8 mi
8:55 PM64 °FLow clouds.13 mph94%29.82 "Hg7 mi
8:35 PM66 °FLow clouds.10 mph88%29.82 "Hg7 mi
8:15 PM66 °FLow clouds.13 mph88%29.83 "Hg8 mi
Weather by CustomWeather, © 2014

See weather overviewHow to use our weather pages